TimeWET,TemperatureF,Dew PointF,Humidity,Sea Level PressureIn,VisibilityMPH,Wind Direction,Wind SpeedMPH,Gust SpeedMPH,PrecipitationIn,Events,Conditions,WindDirDegrees,DateUTC
12:00 AM,48.2,41.0,76,30.36,-9999.0,ENE,4.6,-,N/A,,Clear,70,2012-12-27 00:00:00
12:30 AM,48.2,41.0,76,30.36,-9999.0,Calm,Calm,-,N/A,,Clear,0,2012-12-27 00:30:00
1:30 AM,46.4,42.8,87,30.36,-9999.0,East,1.2,-,N/A,,Clear,100,2012-12-27 01:30:00
2:00 AM,46.4,41.0,81,30.36,-9999.0,East,4.6,-,N/A,,Clear,80,2012-12-27 02:00:00
2:30 AM,44.6,41.0,87,30.36,-9999.0,East,3.5,-,N/A,,Clear,80,2012-12-27 02:30:00
3:00 AM,45,41,82,30.40,6,East,3.5,,,,,90,2012-12-27 03:00:00
3:00 AM,44.6,41.0,87,30.36,-9999.0,East,3.5,-,N/A,,Clear,90,2012-12-27 03:00:00
3:30 AM,44.6,41.0,87,30.36,-9999.0,East,2.3,-,N/A,,Clear,100,2012-12-27 03:30:00
4:00 AM,42.8,41.0,93,30.33,-9999.0,East,5.8,-,N/A,,Clear,100,2012-12-27 04:00:00
4:30 AM,42.8,39.2,87,30.33,-9999.0,East,5.8,-,N/A,,Clear,100,2012-12-27 04:30:00
5:00 AM,42.8,41.0,93,30.33,-9999.0,East,3.5,-,N/A,,Clear,80,2012-12-27 05:00:00
5:30 AM,42.8,41.0,93,30.33,-9999.0,NE,4.6,-,N/A,,Clear,50,2012-12-27 05:30:00
6:00 AM,43,40,85,30.38,6,ENE,4.6,,,,,60,2012-12-27 06:00:00
6:00 AM,42.8,41.0,93,30.33,-9999.0,ENE,4.6,-,N/A,,Clear,60,2012-12-27 06:00:00
6:30 AM,42.8,39.2,87,30.36,-9999.0,East,4.6,-,N/A,,Clear,80,2012-12-27 06:30:00
7:00 AM,42.8,39.2,87,30.36,-9999.0,East,4.6,-,N/A,,Clear,100,2012-12-27 07:00:00
7:30 AM,42.8,39.2,87,30.36,-9999.0,East,3.5,-,N/A,,Clear,90,2012-12-27 07:30:00
8:00 AM,42.8,41.0,93,30.36,-9999.0,East,3.5,-,N/A,,Clear,90,2012-12-27 08:00:00
8:30 AM,42.8,41.0,93,30.39,4.3,East,5.8,-,N/A,,Unknown,80,2012-12-27 08:30:00
9:00 AM,45,42,83,30.43,6,East,8.1,,,,,90,2012-12-27 09:00:00
9:00 AM,44.6,41.0,87,30.39,-9999.0,East,8.1,-,N/A,,Clear,90,2012-12-27 09:00:00
9:30 AM,50.0,42.8,76,30.39,-9999.0,East,6.9,-,N/A,,Clear,90,2012-12-27 09:30:00
10:00 AM,53.6,44.6,72,30.39,-9999.0,East,6.9,-,N/A,,Clear,90,2012-12-27 10:00:00
10:30 AM,53.6,44.6,72,30.39,-9999.0,East,5.8,-,N/A,,Clear,80,2012-12-27 10:30:00
11:00 AM,57.2,44.6,63,30.39,-9999.0,Variable,3.5,-,N/A,,Clear,0,2012-12-27 11:00:00
11:30 AM,59.0,44.6,59,30.39,-9999.0,ENE,4.6,-,N/A,,Clear,70,2012-12-27 11:30:00
12:00 PM,60,45,46,30.37,6,NE,5.8,,,,,50,2012-12-27 12:00:00
12:00 PM,60.8,44.6,55,30.39,-9999.0,NE,4.6,-,N/A,,Clear,50,2012-12-27 12:00:00
12:30 PM,60.8,42.8,52,30.36,-9999.0,NE,6.9,-,N/A,,Clear,50,2012-12-27 12:30:00
1:00 PM,62.6,44.6,52,30.36,-9999.0,ENE,5.8,-,N/A,,Clear,60,2012-12-27 13:00:00
1:30 PM,64.4,42.8,45,30.33,-9999.0,NE,4.6,-,N/A,,Clear,50,2012-12-27 13:30:00
2:00 PM,64.4,42.8,45,30.33,-9999.0,NE,4.6,-,N/A,,Clear,50,2012-12-27 14:00:00
2:30 PM,66.2,41.0,40,30.33,-9999.0,Variable,3.5,-,N/A,,Clear,0,2012-12-27 14:30:00
3:00 PM,66,39,26,30.30,6,East,4.6,,,,,80,2012-12-27 15:00:00
3:00 PM,66.2,39.2,37,30.33,-9999.0,East,4.6,-,N/A,,Clear,90,2012-12-27 15:00:00
3:30 PM,66.2,39.2,37,30.33,6.2,East,3.5,-,N/A,,Unknown,80,2012-12-27 15:30:00
4:00 PM,68.0,39.2,35,30.33,-9999.0,NNE,3.5,-,N/A,,Clear,20,2012-12-27 16:00:00
4:30 PM,66.2,39.2,37,30.33,-9999.0,ENE,3.5,-,N/A,,Clear,70,2012-12-27 16:30:00
5:00 PM,66.2,41.0,40,30.33,-9999.0,North,5.8,-,N/A,,Clear,10,2012-12-27 17:00:00
5:30 PM,64.4,41.0,42,30.33,-9999.0,NNE,5.8,-,N/A,,Clear,20,2012-12-27 17:30:00
6:00 PM,61,40,35,30.32,6,NNE,4.6,,,,,20,2012-12-27 18:00:00
6:00 PM,60.8,41.0,48,30.33,-9999.0,NNE,5.8,-,N/A,,Clear,20,2012-12-27 18:00:00
6:30 PM,59.0,41.0,51,30.33,-9999.0,NNE,6.9,-,N/A,,Clear,30,2012-12-27 18:30:00
7:00 PM,57.2,41.0,55,30.33,-9999.0,NE,5.8,-,N/A,,Clear,40,2012-12-27 19:00:00
7:30 PM,55.4,41.0,58,30.36,-9999.0,ENE,6.9,-,N/A,,Clear,60,2012-12-27 19:30:00
8:00 PM,55.4,41.0,58,30.36,-9999.0,East,4.6,-,N/A,,Clear,90,2012-12-27 20:00:00
8:30 PM,53.6,42.8,67,30.36,5.6,East,6.9,-,N/A,,Unknown,100,2012-12-27 20:30:00
9:00 PM,51,42,61,30.39,5,East,5.8,,,,,90,2012-12-27 21:00:00
9:00 PM,51.8,41.0,67,30.36,5.0,East,5.8,-,N/A,,Unknown,100,2012-12-27 21:00:00
9:30 PM,50.0,41.0,71,30.36,5.6,East,4.6,-,N/A,,Unknown,80,2012-12-27 21:30:00
10:00 PM,50.0,41.0,71,30.36,-9999.0,East,5.8,-,N/A,,Clear,80,2012-12-27 22:00:00
10:30 PM,48.2,41.0,76,30.36,5.6,East,5.8,-,N/A,,Unknown,90,2012-12-27 22:30:00
11:00 PM,46.4,41.0,81,30.39,5.6,East,3.5,-,N/A,,Unknown,90,2012-12-27 23:00:00
11:30 PM,46.4,41.0,81,30.39,5.0,Variable,2.3,-,N/A,,Unknown,0,2012-12-27 23:30:00